TimeEST,TemperatureF,Dew PointF,Humidity,Sea Level PressureIn,VisibilityMPH,Wind Direction,Wind SpeedMPH,Gust SpeedMPH,PrecipitationIn,Events,Conditions,WindDirDegrees,DateUTC
12:51 AM,37.9,24.1,57,29.99,10.0,NNE,12.7,20.7,N/A,,Overcast,20,2013-03-07 05:51:00
1:51 AM,37.0,24.1,59,30.00,10.0,NNE,11.5,21.9,N/A,,Overcast,20,2013-03-07 06:51:00
2:51 AM,36.0,23.0,59,30.01,10.0,North,11.5,-,N/A,,Overcast,10,2013-03-07 07:51:00
3:51 AM,36.0,23.0,59,30.01,10.0,NNE,12.7,-,N/A,,Overcast,20,2013-03-07 08:51:00
4:51 AM,36.0,23.0,59,30.01,10.0,North,9.2,-,N/A,,Mostly Cloudy,10,2013-03-07 09:51:00
5:51 AM,35.1,21.9,59,30.02,10.0,North,10.4,-,N/A,,Clear,360,2013-03-07 10:51:00
6:51 AM,35.1,23.0,61,30.04,10.0,North,8.1,-,N/A,,Overcast,350,2013-03-07 11:51:00
7:51 AM,37.0,23.0,57,30.05,10.0,North,10.4,-,N/A,,Overcast,360,2013-03-07 12:51:00
8:51 AM,37.9,23.0,55,30.07,10.0,North,13.8,-,N/A,,Overcast,350,2013-03-07 13:51:00
9:51 AM,39.0,23.0,53,30.08,10.0,North,12.7,-,N/A,,Overcast,10,2013-03-07 14:51:00
10:51 AM,41.0,23.0,49,30.08,10.0,NW,12.7,19.6,N/A,,Overcast,320,2013-03-07 15:51:00
11:51 AM,44.1,24.1,45,30.07,10.0,NNW,13.8,20.7,N/A,,Mostly Cloudy,330,2013-03-07 16:51:00
12:51 PM,46.0,24.1,42,30.06,10.0,North,12.7,21.9,N/A,,Overcast,350,2013-03-07 17:51:00
1:51 PM,46.0,24.1,42,30.04,10.0,North,16.1,-,N/A,,Overcast,350,2013-03-07 18:51:00
2:51 PM,45.0,24.1,44,30.06,10.0,North,13.8,20.7,N/A,,Overcast,350,2013-03-07 19:51:00
3:51 PM,43.0,23.0,45,30.07,10.0,North,15.0,21.9,N/A,,Overcast,360,2013-03-07 20:51:00
4:51 PM,43.0,23.0,45,30.08,10.0,NNW,16.1,20.7,N/A,,Overcast,330,2013-03-07 21:51:00
5:51 PM,41.0,25.0,53,30.11,10.0,North,13.8,19.6,0.00,,Overcast,350,2013-03-07 22:51:00
6:51 PM,39.0,26.1,60,30.12,10.0,North,13.8,-,N/A,,Overcast,350,2013-03-07 23:51:00
7:51 PM,37.9,26.1,62,30.12,10.0,North,11.5,-,N/A,,Overcast,360,2013-03-08 00:51:00
8:51 PM,37.9,24.1,57,30.12,10.0,North,10.4,-,N/A,,Overcast,350,2013-03-08 01:51:00
9:51 PM,37.9,24.1,57,30.11,10.0,North,13.8,21.9,N/A,,Overcast,350,2013-03-08 02:51:00
10:51 PM,37.0,24.1,59,30.11,10.0,NNW,12.7,-,N/A,,Overcast,340,2013-03-08 03:51:00
11:51 PM,36.0,24.1,62,30.10,10.0,North,11.5,21.9,N/A,,Overcast,350,2013-03-08 04:51:00